Wind_Speed
42 27 11 10 12 10 13 13 12 8 11 11 13 11 11 13 18 16 22 24 26 27 21 30 30 30 29 28 24 24 20 20 20 27 30 31 37 39 40 28 17 8 12
33 11 8 16 12 6 4 8 14 5 9 7 5 11 9 12 12 17 20 22 25 19 14 23 28 25 29 28 28 27 24 21 22 28 29 31 34 38 40 30 23 14 14
22 8 18 17 15 7 5 5 10 16 2 4 3 6 8 9 10 14 18 24 17 14 17 20 23 26 24 27 31 28 25 18 20 23 27 28 31 36 38 35 25 21 13
17 21 22 9 14 14 6 7 3 12 11 6 3 7 7 10 11 13 20 22 20 19 17 18 25 29 22 26 30 31 27 21 22 21 21 23 30 34 35 36 34 26 22
18 18 23 13 7 9 15 9 10 8 8 9 6 8 8 9 9 13 17 17 17 16 16 16 21 29 23 22 26 28 27 23 20 18 18 22 26 31 33 33 33 30 27
7 13 10 16 15 6 8 10 11 10 8 7 4 4 4 6 10 13 15 14 12 11 17 18 18 25 22 19 23 25 23 23 27 16 16 20 23 28 31 32 33 32 29
10 14 14 10 6 8 7 4 2 2 8 11 4 4 5 4 12 13 16 10 8 10 19 16 23 25 24 24 25 25 23 26 24 16 13 18 20 26 28 29 32 33 31
12 9 9 5 8 4 7 5 7 9 6 3 3 3 3 4 11 13 16 11 14 11 15 14 24 23 24 23 25 29 25 28 16 7 10 16 18 24 28 27 28 32 35
11 5 6 7 14 10 9 12 11 10 14 10 7 5 10 4 5 12 11 14 12 10 14 15 19 25 23 23 27 30 27 25 11 4 12 15 17 23 27 28 26 27 33
16 5 6 6 13 20 14 15 13 8 12 15 10 6 7 6 3 11 11 10 9 11 16 14 23 25 24 24 29 31 30 26 18 15 16 17 20 22 26 29 28 28 28
15 6 3 6 18 18 13 16 13 10 9 7 4 7 9 6 3 7 8 13 11 12 13 19 24 24 24 25 32 30 27 27 24 20 18 18 22 24 25 29 31 30 28
13 7 3 4 15 13 14 11 11 10 4 4 4 5 4 7 5 6 11 14 13 13 6 16 23 22 22 27 29 30 30 27 24 21 18 20 22 22 23 28 30 31 30
10 7 2 6 10 11 12 12 12 8 5 6 4 4 2 7 8 8 12 14 12 7 8 20 18 21 26 22 27 28 33 26 20 19 17 18 20 21 22 25 28 31 31
9 6 2 6 7 8 11 9 11 9 6 8 7 5 5 7 7 7 16 11 9 4 12 15 21 21 23 20 23 22 27 26 21 18 17 13 16 19 22 23 26 28 33
10 7 3 3 9 11 11 15 11 10 12 10 8 10 3 5 5 4 9 15 6 4 7 10 16 20 24 21 19 21 24 24 20 19 16 15 15 16 19 21 24 25 28
13 9 6 2 7 15 15 16 15 16 13 9 6 8 7 6 4 5 15 13 4 2 5 3 7 14 23 24 16 21 26 26 24 19 17 19 18 16 17 19 21 25 25
15 10 8 8 3 11 15 22 20 21 18 13 10 13 9 7 8 6 10 13 5 4 6 3 12 17 19 18 17 13 22 24 26 26 20 16 16 14 16 16 17 19 22
17 14 11 9 10 7 8 14 23 23 21 17 15 10 13 16 13 12 14 12 4 3 5 7 11 14 17 13 17 11 13 21 24 26 26 20 14 16 16 16 16 16 18
21 19 16 10 9 11 8 7 12 16 16 14 15 11 10 12 15 20 15 10 6 5 4 6 10 14 11 9 13 11 12 19 24 26 28 26 22 17 18 20 19 19 19
23 22 19 13 11 13 12 7 9 10 9 8 6 2 3 5 12 16 16 11 11 8 5 4 6 10 9 9 9 11 11 14 21 22 26 29 26 26 22 21 23 23 22
25 26 22 17 12 14 16 12 11 12 10 11 5 1 7 6 5 6 13 8 7 11 5 2 4 3 7 11 10 10 9 12 15 22 23 22 28 28 28 27 24 23 22
27 27 25 19 16 15 18 17 15 13 9 9 7 7 7 9 8 7 9 16 13 12 9 5 5 3 5 7 13 11 13 14 13 13 19 20 18 26 26 26 27 28 26
30 30 27 22 17 16 19 18 20 14 8 7 7 6 4 5 5 9 10 12 23 17 11 5 6 5 2 4 10 12 14 13 11 11 13 12 14 19 22 21 22 25 26
32 33 32 25 21 19 21 22 22 17 11 5 3 3 2 3 6 6 10 9 18 22 16 10 9 5 2 1 1 8 10 9 5 6 8 10 13 15 22 21 19 20 23
28 35 34 34 29 24 20 26 24 20 14 8 7 5 5 2 7 6 11 6 14 21 20 19 17 12 6 4 3 4 4 5 6 7 7 10 14 12 13 15 19 17 16
27 31 36 36 33 29 25 29 29 25 19 13 9 8 6 2 7 6 7 3 9 17 20 26 19 13 12 9 5 2 6 3 2 7 6 5 11 11 13 12 12 14 12
Wind_Direction
326 312 289 208 200 217 230 228 234 222 228 278 288 311 321 318 335 347 345 344 355 358 14 31 35 24 23 18 17 14 22 11 18 7 12 11 12 10 12 18 30 82 108
334 324 136 125 112 51 182 221 229 206 233 277 320 334 316 325 332 351 342 358 355 358 31 33 30 26 27 21 18 9 5 6 6 10 10 11 11 12 21 30 45 83 104
356 90 132 134 102 106 246 266 211 215 197 10 310 317 308 16 357 348 5 5 358 31 37 37 29 23 19 21 19 14 5 2 8 7 11 11 16 18 29 39 47 67 98
62 114 125 94 146 182 207 262 228 222 226 295 274 329 37 20 0 16 29 30 59 52 46 31 22 25 28 30 28 23 9 7 10 8 17 16 19 24 33 42 48 58 65
89 102 127 140 137 216 212 242 190 219 204 253 263 312 39 15 351 35 53 63 58 46 37 25 14 21 32 35 30 23 20 5 8 5 24 23 25 29 35 42 48 57 64
96 146 157 138 162 210 198 245 221 231 212 260 273 338 61 1 36 32 46 43 48 46 35 19 14 24 29 25 22 19 23 16 352 5 31 28 31 36 39 45 52 54 58
57 135 149 169 178 183 193 207 103 30 258 255 307 358 32 15 48 33 50 35 25 12 12 18 22 16 18 16 17 15 13 9 358 3 37 41 39 42 43 46 52 58 60
39 129 153 175 198 190 229 175 169 148 174 255 354 344 328 8 55 36 58 36 25 16 28 20 9 13 18 14 19 13 5 357 346 14 52 58 52 51 49 50 56 59 65
22 81 127 145 196 172 181 147 164 135 128 140 145 288 293 352 45 50 70 39 30 32 5 3 11 6 21 16 18 16 3 360 24 95 81 75 68 60 56 57 61 62 68
23 19 92 100 165 158 156 143 147 159 163 144 185 217 284 321 17 72 53 30 18 36 3 30 11 15 14 17 22 23 16 26 69 98 95 82 74 67 60 61 64 70 72
18 19 117 106 161 158 160 160 160 167 153 180 216 227 287 291 250 41 25 14 357 351 338 12 11 25 29 20 14 23 34 56 75 89 91 90 78 69 65 64 65 71 76
10 10 67 132 171 182 193 196 196 189 221 238 259 252 282 293 242 344 345 351 1 356 23 14 17 30 20 15 29 37 44 56 68 78 93 87 79 74 70 66 67 71 72
354 11 172 125 155 185 198 222 202 206 228 235 215 209 357 309 300 306 333 336 3 47 27 6 20 29 21 27 38 54 46 47 62 75 92 90 82 75 74 72 68 72 75
324 349 342 189 185 198 210 212 186 203 258 198 222 243 240 293 312 319 340 326 2 352 348 357 18 24 31 34 37 43 36 48 58 69 82 94 83 76 73 77 75 72 74
293 319 310 248 206 200 201 195 202 228 226 223 249 251 208 305 341 307 330 328 13 322 326 351 28 38 36 29 28 34 40 47 64 73 74 83 95 87 78 76 81 79 77
272 301 297 259 212 197 202 199 208 242 210 228 247 260 222 278 256 302 291 315 355 335 20 19 5 20 22 27 33 40 45 54 63 70 77 86 89 89 86 80 84 86 83
257 274 286 269 189 215 223 218 205 219 239 239 258 241 258 307 257 311 295 294 343 320 8 350 324 340 2 12 31 44 50 59 59 62 68 85 96 90 92 92 88 89 87
252 259 268 272 239 226 222 214 220 225 234 236 247 262 276 293 255 276 295 261 307 333 3 354 6 354 357 16 26 53 53 54 65 65 61 68 88 104 106 109 108 101 96
240 250 257 253 256 234 226 197 206 207 217 226 239 279 272 269 253 284 284 239 263 250 326 4 343 355 6 24 30 46 63 60 70 68 65 64 70 89 100 102 113 114 108
235 237 246 247 260 233 216 206 178 177 191 210 201 256 313 314 283 263 255 220 232 222 263 353 357 22 30 35 46 54 50 63 71 76 74 67 68 72 87 95 100 104 103
229 231 238 243 254 249 210 214 200 176 177 177 172 346 354 293 290 238 232 196 226 218 223 258 321 1 5 37 53 51 58 70 80 81 76 75 71 73 76 84 90 92 93
229 226 233 242 245 245 216 210 200 181 177 192 235 265 298 304 276 282 246 235 226 235 214 229 243 231 338 23 41 60 57 80 86 87 78 65 73 69 75 80 86 90 91
224 227 226 234 230 235 209 215 194 192 198 218 254 276 281 297 297 295 273 250 228 226 200 197 211 218 204 26 57 74 69 81 89 107 92 76 85 72 83 80 89 95 95
228 225 223 226 232 230 219 213 206 204 207 192 242 274 250 303 318 293 297 257 215 213 194 211 208 192 220 224 71 98 90 94 94 125 71 94 107 102 91 94 89 93 94
236 228 227 228 234 228 219 210 213 210 215 222 219 257 260 317 356 316 317 233 218 212 205 195 199 184 195 193 159 204 134 118 116 137 106 105 119 108 114 98 95 91 83
241 234 227 227 233 222 219 214 217 217 216 226 238 240 223 7 359 350 348 15 208 217 214 206 214 194 203 205 202 225 231 239 208 169 195 153 139 126 118 115 105 93 97
Height
10968 10961 10961 10967 10970 10974 10976 10980 10983 10986 10987 10986 10986 10986 10986 10985 10984 10983 10981 10976 10971 10965 10962 10959 10954 10950 10947 10944 10940 10936 10933 10929 10924 10919 10914 10909 10902 10894 10885 10875 10869 10867 10867
10961 10958 10960 10965 10970 10973 10977 10980 10982 10983 10984 10985 10984 10986 10986 10985 10984 10984 10979 10974 10969 10965 10963 10960 10955 10952 10948 10946 10942 10938 10933 10928 10924 10919 10915 10910 10905 10897 10886 10877 10872 10869 10870
10958 10957 10963 10967 10971 10974 10975 10979 10981 10983 10984 10984 10985 10986 10987 10985 10985 10982 10978 10972 10967 10965 10964 10961 10957 10954 10950 10946 10943 10939 10934 10930 10926 10922 10917 10914 10908 10901 10891 10883 10878 10875 10873
10963 10963 10966 10971 10974 10976 10977 10979 10980 10982 10984 10985 10986 10986 10987 10986 10984 10981 10977 10971 10968 10966 10964 10962 10958 10955 10951 10947 10943 10940 10935 10931 10927 10922 10920 10917 10912 10904 10897 10889 10884 10880 10877
10970 10970 10970 10972 10976 10977 10978 10980 10982 10982 10984 10984 10986 10987 10987 10986 10984 10981 10976 10973 10970 10968 10964 10962 10959 10956 10952 10949 10943 10941 10937 10934 10929 10925 10923 10919 10914 10908 10901 10894 10889 10886 10883
10974 10973 10973 10974 10976 10977 10978 10982 10981 10983 10983 10985 10987 10986 10986 10986 10984 10980 10976 10975 10971 10969 10966 10963 10961 10957 10953 10949 10945 10940 10937 10934 10931 10927 10923 10921 10917 10912 10906 10900 10895 10890 10887
10976 10976 10976 10976 10976 10978 10979 10980 10981 10984 10985 10986 10988 10986 10987 10985 10984 10980 10977 10975 10973 10972 10969 10966 10962 10957 10954 10949 10944 10940 10937 10933 10930 10928 10925 10923 10920 10916 10911 10907 10901 10896 10891
10979 10978 10977 10976 10976 10977 10979 10980 10983 10985 10987 10987 10990 10988 10987 10986 10983 10981 10979 10976 10975 10973 10971 10968 10964 10959 10954 10949 10944 10939 10935 10931 10929 10928 10926 10925 10923 10920 10915 10911 10907 10903 10897
10979 10979 10977 10977 10977 10977 10978 10980 10982 10984 10986 10988 10989 10988 10986 10985 10983 10983 10981 10978 10976 10974 10972 10969 10965 10960 10955 10950 10946 10939 10935 10929 10924 10926 10927 10928 10926 10924 10920 10915 10911 10909 10904
10980 10978 10977 10975 10975 10977 10978 10981 10982 10984 10987 10988 10988 10988 10985 10985 10984 10982 10981 10979 10978 10975 10973 10970 10967 10961 10957 10953 10948 10940 10935 10927 10924 10927 10928 10930 10929 10927 10923 10919 10916 10913 10910
10981 10977 10977 10975 10976 10977 10980 10982 10983 10985 10987 10989 10988 10987 10985 10984 10982 10983 10982 10980 10977 10976 10974 10971 10968 10963 10960 10957 10950 10945 10938 10932 10929 10930 10931 10933 10932 10930 10927 10924 10921 10918 10916
10981 10978 10976 10975 10977 10979 10979 10981 10983 10984 10986 10988 10987 10985 10984 10982 10981 10982 10981 10980 10977 10974 10974 10972 10969 10966 10963 10959 10954 10948 10943 10937 10934 10934 10934 10935 10934 10933 10931 10928 10925 10922 10921
10981 10979 10978 10977 10978 10980 10980 10979 10981 10983 10984 10986 10985 10985 10984 10982 10981 10982 10982 10981 10978 10976 10974 10973 10971 10968 10964 10961 10956 10952 10947 10943 10939 10936 10936 10937 10937 10936 10934 10933 10931 10928 10925
10980 10978 10977 10976 10977 10978 10979 10978 10979 10981 10982 10983 10984 10984 10983 10981 10981 10981 10980 10980 10979 10977 10977 10976 10973 10970 10967 10963 10960 10955 10952 10948 10944 10941 10939 10939 10940 10939 10938 10936 10936 10934 10931
10977 10976 10975 10974 10974 10976 10977 10979 10980 10980 10981 10981 10982 10982 10983 10981 10979 10980 10979 10980 10980 10979 10978 10977 10974 10972 10968 10965 10962 10959 10956 10952 10948 10946 10943 10941 10942 10942 10942 10940 10940 10940 10937
10974 10973 10972 10972 10971 10972 10974 10975 10977 10978 10979 10980 10980 10980 10981 10980 10978 10978 10979 10978 10978 10979 10978 10978 10976 10972 10970 10966 10964 10963 10960 10956 10951 10949 10946 10944 10944 10945 10944 10943 10944 10943 10943
10971 10970 10969 10969 10969 10970 10971 10972 10973 10975 10977 10977 10978 10979 10979 10979 10977 10977 10978 10976 10977 10977 10978 10977 10975 10973 10970 10968 10966 10966 10964 10961 10957 10953 10950 10948 10947 10946 10946 10946 10946 10946 10946
10966 10966 10966 10966 10967 10968 10967 10967 10969 10971 10973 10975 10976 10976 10976 10976 10976 10975 10976 10974 10976 10976 10977 10977 10975 10974 10971 10970 10969 10969 10967 10963 10960 10957 10953 10951 10950 10949 10947 10947 10948 10948 10949
10961 10963 10964 10964 10964 10965 10965 10965 10966 10968 10970 10972 10973 10973 10972 10972 10973 10972 10972 10973 10973 10974 10975 10976 10975 10974 10973 10971 10970 10970 10967 10964 10962 10961 10958 10957 10955 10952 10951 10949 10949 10949 10950
10956 10958 10960 10962 10962 10962 10963 10963 10965 10966 10969 10970 10971 10971 10969 10968 10968 10968 10969 10970 10972 10973 10974 10975 10976 10976 10974 10972 10971 10970 10968 10966 10964 10963 10963 10962 10960 10958 10956 10955 10953 10952 10953
10949 10953 10955 10958 10959 10959 10960 10962 10963 10965 10967 10969 10969 10968 10967 10966 10966 10966 10967 10969 10970 10973 10973 10974 10976 10977 10975 10973 10971 10970 10969 10968 10966 10966 10966 10966 10965 10964 10962 10960 10959 10957 10957
10942 10947 10950 10952 10955 10956 10958 10959 10961 10963 10965 10966 10967 10967 10965 10964 10963 10963 10965 10966 10968 10970 10972 10974 10975 10976 10975 10974 10974 10972 10970 10969 10969 10970 10970 10970 10969 10969 10968 10967 10965 10963 10963
10935 10941 10945 10947 10950 10953 10955 10957 10958 10961 10963 10964 10965 10965 10964 10962 10960 10959 10960 10961 10963 10966 10969 10971 10972 10973 10974 10973 10973 10973 10972 10972 10972 10972 10972 10973 10972 10972 10972 10972 10971 10969 10969
10927 10934 10939 10943 10945 10949 10952 10954 10956 10958 10961 10962 10964 10964 10963 10962 10960 10957 10956 10957 10958 10962 10966 10969 10971 10972 10972 10972 10972 10972 10973 10974 10975 10974 10976 10976 10975 10975 10975 10975 10975 10975 10974
10920 10926 10932 10936 10940 10943 10947 10950 10953 10956 10958 10959 10961 10962 10962 10961 10958 10956 10954 10953 10954 10959 10963 10967 10969 10971 10972 10971 10972 10973 10974 10974 10975 10975 10977 10978 10978 10978 10977 10977 10978 10979 10978
10912 10918 10924 10929 10933 10937 10940 10945 10949 10952 10954 10957 10959 10959 10960 10959 10958 10957 10955 10953 10953 10956 10959 10963 10966 10969 10971 10972 10972 10972 10972 10973 10973 10975 10977 10979 10979 10979 10979 10979 10980 10981 10982